Texas Shootout - 2nd RACE

Station: CLAUDE TRUCK SHOP - A Race

Distance: 251.736 Miles

Release: 16-Jan-2022 08:30

Weather Release: CLEAR    Arrival: CLEAR

Wind at Release: WNW 5     Wind at Arrival: WSW 5

Temp at Release: 28°    Temp at Arrival: 48°

Lofts: 65

Birds: 264

Clocked: 260

Good Luck to Everyone!
Drops Pos Breeder Pigeon Name Color Sex Ent Arrival Speed To Win Elg Pd
2,000 1 Wood Loft - TX 0772-AU21-DENT BC C 1 13:08:30.60 1590.805 00:00:00 Yes
1,500 2 Gossett & Son - TX 0112-AU21-GOSS BB H 1 13:08:34.30 1590.453 00:00:04 Yes
1,200 3 Ledet-Gutrz - LA 21164-AU21-LEDE BC H 1 13:08:43.80 1589.550 00:00:13 Yes
1,000 4 Dea Loft - AZ 0033-AU21-DEA BC H 1 13:08:47.30 1589.217 00:00:17 Yes
900 5 Butch Shoop - TX 0095-AU21-GTF BB C 1 13:08:48.40 1589.113 00:00:18 Yes
800 6 The Red Dirt Gang - OK 10233-AU21-FOYS BC C 1 13:08:49.80 1588.980 00:00:19 Yes
700 7 Team Taylor's & Berry's - TX 3182-AU21-TEXA BB C 1 13:08:50.70 1588.894 00:00:20 Yes
600 8 C F L - LA 1068-AU21-CFL BC H 1 13:08:51.30 1588.837 00:00:21 Yes
500 9 Dolly's Loft - TX 21774-AU21-CRES BB C 1 13:08:51.80 1588.790 00:00:21 Yes
500 10 Jojos International - TX 6265-AU21-GJOJ BCWF H 1 13:08:52.10 1588.761 00:00:21 Yes
11 Siegel's - LA 21393-AU21-A BB C 1 13:08:52.60 1588.714 00:00:22 Yes
12 R & D Racing 2 - ON 1875-AU21-AA BWFP C 1 13:08:52.90 1588.685 00:00:22 Yes
13 Any Given Day Loft - TX 21173-AU21-ANYG DC H 1 13:08:53.00 1588.676 00:00:22 Yes
14 Wartick Family Loft - KS 9521-AU21-ARPU BB C 1 13:08:53.30 1588.647 00:00:23 Yes
15 Elton Dinga - TX 19983-AU21-AA Olympiade003 x Engelen984 BB H 1 13:08:53.90 1588.590 00:00:23 Yes
16 Larry Payne - TX 0630-AU21-LPL BB C 1 13:08:54.10 1588.571 00:00:24 Yes
17 Jojos International - TX 6287-AU21-GJOJ BB C 2 13:08:54.80 1588.505 00:00:24 Yes
18 Siegel's - LA 21405-AU21-A DC H 2 13:08:55.30 1588.458 00:00:25 Yes
19 Jojos International - TX 6263-AU21-GJOJ BCWF H 3 13:08:55.50 1588.439 00:00:25 Yes
20 Elton Dinga - TX 2364-AU21-UTEN 1st Champion World Ace 11 BC H 2 13:08:55.60 1588.429 00:00:25 Yes
21 Butch Shoop - TX 0232-AU21-QUES BB H 2 13:08:55.80 1588.410 00:00:25 Yes
22 Any Given Day Loft - TX 21178-AU21-ANYG BC C 2 13:08:55.90 1588.401 00:00:25 Yes
23 Team Taylor's & Berry's - TX 3118-AU21-TEX BC C 2 13:08:56.70 1588.325 00:00:26 Yes
24 Wolf Pac - TX 0477-AU21-DENT BB H 1 13:08:57.50 1588.249 00:00:27 Yes
25 Jojos International - TX 6281-AU21-GJOJ BWFP C 4 13:08:58.40 1588.163 00:00:28 Yes
26 Sovereign Loft - TX 0092-AU21-SOV R.A. Bakker X T&j Elzinga BB C 1 13:08:58.70 1588.135 00:00:28 Yes
27 Any Given Day Loft - TX 21137-AU21-ANYG BC H 3 13:08:59.00 1588.106 00:00:28 Yes
28 Redtex - TX 0370-AU21-REDT alpha chick BB H 1 13:09:00.50 1587.964 00:00:30 Yes
29 Patrick Kwan - CA 2180-AU21-KWAN BC H 1 13:09:00.80 1587.936 00:00:30 Yes
30 Patrick Kwan - CA 2195-AU21-KWAN BC C 2 13:09:01.50 1587.869 00:00:31 Yes
31 The New Orleans Boys - LA 21178-AU21-MET BWFP H 1 13:09:04.10 1587.623 00:00:33 Yes
32 Larry Payne - TX 0627-AU21-LPL BB H 2 13:09:08.90 1587.168 00:00:38 Yes
33 Blue Dog Express - TX 0463-AU21-DENT BB C 1 13:09:12.20 1586.855 00:00:42 Yes
34 Blue Dog Express - TX 0468-AU21-DENT BB C 2 13:09:15.60 1586.533 00:00:45 Yes
35 Rick Smith - TX 2166-AU21-SMIT GRIZ H 1 13:09:16.40 1586.457 00:00:46 Yes
36 Wartick Family Loft - KS 0206-AU21-AIR BB C 2 13:09:17.60 1586.344 00:00:47 Yes
37 The New Orleans Boys - LA 21184-AU21-MET DWFP H 2 13:09:18.10 1586.296 00:00:47 Yes
38 H & H Loft - TX 4352-AU21-VITA Don't Blink BWFP H 1 13:09:18.30 1586.277 00:00:48 Yes
39 Callahan Loft - MO 0350-AU21-AA BB C 1 13:09:20.80 1586.041 00:00:50 Yes
40 Dan & Greg Coury - AZ 0828-AU21-AONE BBWF C 1 13:09:23.60 1585.776 00:00:53 Yes
41 Any Given Day Loft - TX 21146-AU21-ANYG BC C 4 13:09:39.20 1584.302 00:01:09 Yes
42 Mc Laughlin Lofts - MA 0195-AU21-MCLO BWF H 1 13:09:40.70 1584.160 00:01:10 Yes
43 Nemelka Racing Pigeon Loft - UT 1116-AU21-NRPL 😎😎😎😎😎😎 BC H 1 13:10:02.00 1582.152 00:01:31 Yes
44 Norman Benoit - KS 2534-AU21-TEXA BB H 1 13:10:42.60 1578.338 00:02:12 Yes
45 Elton Dinga - TX 2371-AU21-UTEN Inbred Olympiade 003 BB H 3 13:10:43.10 1578.291 00:02:12 Yes
46 Flying D Loft - TX 1420-AU21-FLYN E 147 / Lin 8878 BB H 1 13:10:43.40 1578.263 00:02:13 Yes
47 Brown & Evans - TX 0382-AU21-WF 1536 X 177 BB H 1 13:10:45.60 1578.057 00:02:15 Yes
48 Westfall/Lindsay - MO 0130-AU21-WMW BB H 1 13:10:46.10 1578.010 00:02:15 Yes
49 Timberline Speed Loft - TX 0149-AU21-HALE BB H 1 13:10:47.40 1577.888 00:02:17 Yes
50 Rick Smith - TX 2160-AU21-SMIT BB C 2 13:10:48.50 1577.785 00:02:18 Yes
51 Malone's Loft - TX 0327-AU21-DENT Spitfire BB H 1 13:10:49.20 1577.720 00:02:19 Yes
52 H & H Loft - TX 4301-AU21-VITA BB C 2 13:10:50.10 1577.635 00:02:19 Yes
53 Malone's Loft - TX 0377-AU21-DENT Dauntless BBWF C 2 13:10:50.50 1577.598 00:02:20 Yes
54 Crestview Loft - TX 21761-AU21-CRES BB H 1 13:10:53.40 1577.326 00:02:23 Yes
55 Corso & Jean - LA 81386-AU21-ARPU BB C 1 13:10:55.10 1577.167 00:02:24 Yes
56 Nestle Loft - TX 30247-AU21-AA BB H 1 13:10:56.50 1577.036 00:02:26 Yes
57 Malone's Loft - TX 0328-AU21-DENT Typhoon BB C 3 13:11:03.50 1576.382 00:02:33 Yes
58 Wartick Family Loft - KS 9528-AU21-ARPU BB C 3 13:11:10.30 1575.746 00:02:40 Yes
59 Wood Loft - TX 0774-AU21-DENT BLK C 2 13:12:17.50 1569.494 00:03:47 Yes
60 Westfall/Lindsay - MO 21218-AU21-BOOT BB C 2 13:16:04.30 1548.756 00:07:34 Yes
61 Hi-Cal Connection - CA 0741-AU21-SD BB H 1 13:16:32.40 1546.225 00:08:02 Yes
62 Crestview Loft - TX 21770-AU21-CRES BB H 2 13:16:36.10 1545.892 00:08:05 Yes
63 Hi-Cal Connection - CA 0781-AU21-HICA BB C 2 13:16:36.50 1545.856 00:08:06 Yes
64 Baudy Loft - LA 21187-AU21-MET BB C 1 13:16:37.40 1545.775 00:08:07 Yes
65 Kibria Rpl - TX 0787-AU21-NTF 2190 X 1027 BC C 1 13:16:39.20 1545.613 00:08:09 Yes
66 Kibria Rpl - TX 0826-AU21-WWC Vk 118 X 4404 BC C 2 13:16:39.70 1545.568 00:08:09 Yes
67 C.C.C. & Son - KS 2172-AU21-CCC BCWF C 1 13:16:40.00 1545.541 00:08:09 Yes
68 SouthernLegacyLoft - TX 2111-AU21-SLL DBB C 1 13:16:41.60 1545.398 00:08:11 Yes
69 Nemelka Racing Pigeon Loft - UT 1125-AU21-NRPL 😎😎😎😎😎😎 BB C 2 13:16:45.60 1545.038 00:08:15 Yes
70 Crestview Loft - TX 21773-AU21-CRES BB H 3 13:16:46.10 1544.994 00:08:15 Yes
71 Gossett & Son - TX 0119-AU21-GOSS BB H 2 13:16:47.10 1544.904 00:08:16 Yes
72 The Red Dirt Gang - OK 10234-AU21-FOYS BC C 2 13:16:47.40 1544.877 00:08:17 Yes
73 Corso & Jean - LA 81385-AU21-ARPU BSPL H 2 13:16:47.70 1544.850 00:08:17 Yes
74 C.C.C. & Son - KS 2166-AU21-CCC BC C 2 13:16:48.70 1544.760 00:08:18 Yes
74 Kibria Rpl - TX 0827-AU21-WWC Vk 118 X 4404 BB C 3 13:16:48.70 1544.760 00:08:18 Yes
76 B S B Loft - OK 10274-AU21-FOYS BB C 1 13:16:49.20 1544.715 00:08:19 Yes
77 Katy Bug - TX 2539-AU21-TEXA BC H 1 13:16:49.60 1544.679 00:08:19 Yes
77 Nemeth Family Loft - CA 0890-AU21-NEME BB H 1 13:16:49.60 1544.679 00:08:19 Yes
79 Mc Laughlin Lofts - MA 0254-AU21-MCLO DCTC H 2 13:16:50.30 1544.616 00:08:20 Yes
80 Venn Family Loft - WY 11515-AU21-ARPU BB C 1 13:16:50.90 1544.563 00:08:20 Yes
81 Bill Kluge - TX 1110-AU21-COLD 7 BB C 1 13:16:51.70 1544.491 00:08:21 Yes
82 Gold Star Loft - FL 1881-AU21-STON BC H 1 13:16:52.10 1544.455 00:08:21 Yes
83 SouthernLegacyLoft - TX 2104-AU21-SLL BB C 2 13:16:52.20 1544.446 00:08:22 Yes
84 Brown & Evans - TX 0977-AU21-WF BB H 2 13:16:52.40 1544.428 00:08:22 Yes
85 Larry Payne - TX 0632-AU21-LPL BB H 3 13:16:52.80 1544.392 00:08:22 Yes
85 R & D Racing 2 - ON 20314-CU21-CU BC H 2 13:16:52.80 1544.392 00:08:22 Yes
87 Hillbilly Loft - TX 2285-AU21-AA 3117 X 17684 BB H 1 13:16:53.30 1544.347 00:08:23 Yes
88 Butch Shoop - TX 0097-AU21-GTF BB H 3 13:16:53.60 1544.320 00:08:23 Yes
89 Venn Family Loft - WY 11504-AU21-ARPU BBWF C 2 13:16:54.20 1544.267 00:08:24 Yes
90 Mc Laughlin Lofts - MA 0241-AU21-MCLO BC C 3 13:16:54.50 1544.240 00:08:24 Yes
91 Bill Kluge - TX 1024-AU21-COLD 27 BBSP C 2 13:16:55.40 1544.159 00:08:25 Yes
92 Any Given Day Loft - TX 21127-AU21-ANYG DC H 5 13:16:55.50 1544.150 00:08:25 Yes
93 Any Given Day Loft - TX 21214-AU21-ANYG BB H 6 13:16:56.50 1544.060 00:08:26 Yes
94 Blue Angel Classic - FL 0100-AU21-WARD BC H 1 13:16:57.00 1544.015 00:08:26 Yes
95 Hi-Cal Connection - CA 0757-AU21-SD DC H 3 13:16:57.30 1543.988 00:08:27 Yes
95 Brown & Evans - TX 0789-AU21-WF Barn Burner BB C 3 13:16:57.30 1543.988 00:08:27 Yes
97 Any Given Day Loft - TX 21152-AU21-ANYG BB C 7 13:16:57.80 1543.944 00:08:27 Yes
98 Sky Dancer Loft - TX 0777-AU21-WWC AIRBENDER BC H 1 13:16:57.90 1543.935 00:08:27 Yes
99 Nemelka Racing Pigeon Loft - UT 1120-AU21-NRPL 😎😎😎😎😎😎 BB H 3 13:16:58.20 1543.908 00:08:28 Yes
100 C F L - LA 1052-AU21-CFL SIL C 2 13:16:59.20 1543.818 00:08:29 Yes

There are 264 bird records

Note: These Race Results are unofficial and subject to change until verified by the Race Committee and declared final.